This is the latest recevied weather packets stored in our database for station/object DB0TV-13. If no packets are shown the sender has not sent any weather packets the latest 10 day(s).
| Time | Temp. | Humidity | Pressure | Rain* | Wind** | Luminosity | Snow |
|---|---|---|---|---|---|---|---|
| 1777915220 | 12.78° C | 93% | 1012.5 hPa | 2.54 mm | - | 31 W/m² | - |
| 1777914618 | 12.78° C | 94% | 1012.6 hPa | 6.1 mm | - | 41 W/m² | - |
| 1777914018 | 12.78° C | 93% | 1012.7 hPa | 6.1 mm | - | 42 W/m² | - |
| 1777913418 | 12.78° C | 93% | 1012.8 hPa | 6.1 mm | - | 38 W/m² | - |
| 1777912820 | 13.33° C | 92% | 1012.9 hPa | 5.84 mm | - | 40 W/m² | - |
| 1777912220 | 13.33° C | 91% | 1012.9 hPa | 5.59 mm | - | 25 W/m² | - |
| 1777911618 | 13.89° C | 90% | 1012.8 hPa | 4.06 mm | - | 17 W/m² | - |
| 1777911020 | 15° C | 89% | 1012.8 hPa | 0.76 mm | - | 6 W/m² | - |
| 1777910420 | 15° C | 89% | 1012.8 hPa | 0.51 mm | - | 26 W/m² | - |
| 1777909820 | 15° C | 88% | 1012.6 hPa | 0.76 mm | - | 98 W/m² | - |
| 1777909218 | 15.56° C | 88% | 1012.7 hPa | 1.02 mm | - | 116 W/m² | - |
| 1777908620 | 15.56° C | 86% | 1012.7 hPa | 0.76 mm | - | 96 W/m² | - |
| 1777908020 | 15.56° C | 86% | 1012.7 hPa | 0.51 mm | - | 76 W/m² | - |
| 1777907420 | 16.11° C | 85% | 1012.8 hPa | 0.51 mm | - | 88 W/m² | - |
| 1777906818 | 16.67° C | 83% | 1012.7 hPa | 0.51 mm | - | 99 W/m² | - |
| 1777906220 | 16.67° C | 81% | 1012.7 hPa | 0.25 mm | - | 72 W/m² | - |
| 1777905620 | 16.67° C | 80% | 1012.7 hPa | 0 mm | - | 79 W/m² | - |
| 1777905020 | 17.22° C | 78% | 1012.7 hPa | 0 mm | - | 76 W/m² | - |
| 1777904420 | 17.22° C | 76% | 1012.7 hPa | 0 mm | - | 86 W/m² | - |
| 1777903820 | 17.22° C | 76% | 1012.6 hPa | 0 mm | - | 133 W/m² | - |
| 1777903220 | 17.78° C | 75% | 1012.5 hPa | 0 mm | - | 195 W/m² | - |
| 1777902620 | 17.78° C | 74% | 1012.5 hPa | 0 mm | - | 213 W/m² | - |
| 1777902020 | 17.78° C | 74% | 1012.6 hPa | 0 mm | - | 261 W/m² | - |
| 1777901420 | 18.33° C | 73% | 1012.6 hPa | 0 mm | - | 253 W/m² | - |
| 1777900820 | 18.33° C | 71% | 1012.8 hPa | 0 mm | - | 295 W/m² | - |
* Rain latest hour (hover to see other rain measurements)
** Current wind speed in m/s (hover to see current wind gust speed)